SCP
2 4 7 5 3 2 2 2 5 3 3 2 1 1 2 1 1 1 1 1 1 0
3 2 5 2 4 2 2 1 2 2 2 2 1 0 1 1 2 2 2 2 2 1
0 3 2 2 2 1 2 2 2 1 0 1 1 1 1 1 1 2 2 1 2 2
0 0 2 0 1 0 3 2 1 1 1 1 0 1 1 1 1 1 2 2 2 2
0 0 0 1 0 0 1 1 2 1 1 1 1 1 2 1 1 1 1 1 2 1
0 0 0 0 0 2 0 1 2 2 2 2 1 1 1 1 1 1 1 1 2 2
0 0 0 0 3 1 2 1 2 2 2 2 2 1 1 1 1 2 1 2 2 1
0 0 0 0 2 3 2 3 3 3 2 2 2 3 2 2 2 2 2 2 2 1
0 0 0 0 1 5 4 5 4 3 3 4 4 3 2 3 4 4 3 2 2 1
0 0 0 0 2 2 6 6 5 4 4 4 4 2 1 2 3 3 2 2 2 1
0 0 0 0 1 4 6 8 6 6 5 5 4 1 1 0 3 2 1 2 2 0
0 0 0 0 1 2 4 5 5 7 6 5 5 1 0 0 3 3 2 1 0 0
0 0 0 0 0 1 3 4 4 4 4 2 3 0 0 0 4 2 0 0 0 0
0 0 0 0 0 1 2 2 2 2 2 3 2 1 0 0 3 0 0 0 0 0
Wind_Speed_500mb
80 80 75 80 64 63 59 69 86 82 85 78 68 72 73 60 57 51 56 49 50 41
68 85 82 83 84 77 56 49 66 68 71 67 75 70 73 66 59 52 54 54 53 50
58 58 76 68 86 76 65 59 58 66 59 60 67 70 70 63 60 57 52 53 54 55
47 60 68 96 99 49 70 61 55 55 53 59 58 65 62 61 57 57 57 57 54 53
36 52 60 64 141 109 55 53 48 48 49 53 57 60 63 61 56 54 59 60 57 55
22 46 57 55 97 69 60 46 46 46 48 46 47 49 56 57 56 56 55 57 60 59
32 21 61 53 46 49 45 48 49 53 47 46 47 48 49 49 55 58 59 61 61 61
30 28 24 56 55 42 53 48 50 49 49 50 53 50 56 56 59 63 58 62 63 64
28 25 22 23 60 49 43 47 48 51 51 53 55 58 65 63 63 67 66 64 61 61
29 26 22 16 24 55 46 44 55 54 54 57 59 66 71 66 61 61 63 63 63 65
28 27 20 16 15 43 50 53 45 52 55 56 59 71 69 67 63 57 56 58 65 74
32 26 20 17 11 16 47 46 53 54 53 62 62 66 68 69 65 59 62 65 67 67
29 28 29 25 17 12 18 41 52 59 64 69 72 74 69 70 62 73 75 66 62 65
28 30 26 33 28 11 13 23 43 55 65 62 64 70 66 67 79 83 78 67 65 66
Wind_Direction_500mb
223 224 226 226 218 214 210 211 215 215 217 217 217 219 224 221 219 217 214 215 211 218
224 222 225 228 227 222 213 210 211 214 215 222 224 220 227 221 224 214 218 218 220 216
225 224 231 234 227 214 211 198 207 209 205 214 223 224 225 223 216 213 217 216 221 219
230 224 229 233 215 229 206 199 196 205 207 210 212 217 213 212 206 212 213 216 216 218
256 218 223 233 220 236 202 197 191 194 200 203 209 212 213 214 210 214 214 217 213 216
284 228 219 225 205 213 214 188 186 193 191 189 193 204 214 218 215 215 216 217 216 215
303 248 221 222 218 208 200 194 191 197 190 195 204 208 210 212 214 220 222 219 220 218
305 293 227 214 219 211 212 194 196 196 197 200 205 208 211 211 215 217 217 220 221 219
290 291 273 226 204 201 208 203 194 197 199 201 205 211 213 216 218 224 227 227 228 224
286 290 295 285 209 206 199 205 201 198 201 205 207 210 214 216 222 230 234 230 228 223
275 273 281 285 274 209 202 207 204 206 207 208 212 219 217 218 221 229 231 227 228 226
249 255 267 268 268 198 208 209 214 211 212 214 213 221 222 220 218 229 234 229 231 229
249 235 247 254 252 202 201 209 216 221 224 225 227 229 229 223 213 229 234 233 233 234
240 226 224 243 264 253 244 226 212 221 226 228 230 231 228 227 223 232 235 232 228 222
Wind_Speed_850mb
80 80 75 80 64 63 59 69 86 82 85 78 68 72 73 60 57 51 56 49 50 41
68 85 82 83 84 77 56 49 66 68 71 67 75 70 73 66 59 52 54 54 53 50
58 58 76 68 86 76 65 59 58 66 59 60 67 70 70 63 60 57 52 53 54 55
47 60 68 96 99 49 70 61 55 55 53 59 58 65 62 61 57 57 57 57 54 53
36 52 60 64 141 109 55 53 48 48 49 53 57 60 63 61 56 54 59 60 57 55
22 46 57 55 97 69 60 46 46 46 48 46 47 49 56 57 56 56 55 57 60 59
32 21 61 53 46 49 45 48 49 53 47 46 47 48 49 49 55 58 59 61 61 61
30 28 24 56 55 42 53 48 50 49 49 50 53 50 56 56 59 63 58 62 63 64
28 25 22 23 60 49 43 47 48 51 51 53 55 58 65 63 63 67 66 64 61 61
29 26 22 16 24 55 46 44 55 54 54 57 59 66 71 66 61 61 63 63 63 65
28 27 20 16 15 43 50 53 45 52 55 56 59 71 69 67 63 57 56 58 65 74
32 26 20 17 11 16 47 46 53 54 53 62 62 66 68 69 65 59 62 65 67 67
29 28 29 25 17 12 18 41 52 59 64 69 72 74 69 70 62 73 75 66 62 65
28 30 26 33 28 11 13 23 43 55 65 62 64 70 66 67 79 83 78 67 65 66
Wind_Direction_850mb
223 224 226 226 218 214 210 211 215 215 217 217 217 219 224 221 219 217 214 215 211 218
224 222 225 228 227 222 213 210 211 214 215 222 224 220 227 221 224 214 218 218 220 216
225 224 231 234 227 214 211 198 207 209 205 214 223 224 225 223 216 213 217 216 221 219
230 224 229 233 215 229 206 199 196 205 207 210 212 217 213 212 206 212 213 216 216 218
256 218 223 233 220 236 202 197 191 194 200 203 209 212 213 214 210 214 214 217 213 216
284 228 219 225 205 213 214 188 186 193 191 189 193 204 214 218 215 215 216 217 216 215
303 248 221 222 218 208 200 194 191 197 190 195 204 208 210 212 214 220 222 219 220 218
305 293 227 214 219 211 212 194 196 196 197 200 205 208 211 211 215 217 217 220 221 219
290 291 273 226 204 201 208 203 194 197 199 201 205 211 213 216 218 224 227 227 228 224
286 290 295 285 209 206 199 205 201 198 201 205 207 210 214 216 222 230 234 230 228 223
275 273 281 285 274 209 202 207 204 206 207 208 212 219 217 218 221 229 231 227 228 226
249 255 267 268 268 198 208 209 214 211 212 214 213 221 222 220 218 229 234 229 231 229
249 235 247 254 252 202 201 209 216 221 224 225 227 229 229 223 213 229 234 233 233 234
240 226 224 243 264 253 244 226 212 221 226 228 230 231 228 227 223 232 235 232 228 222